IRS-P5 (CARTOSAT-1)

Last updated on Thu Oct 30 2025 00:02:30 GMT+0000 (Coordinated Universal Time)

1 28649U 05017A 25302.50212659 .00002545 00000+0 26821-3 0 9991 2 28649 97.5554 330.8701 0002705 98.3087 261.8438 14.90176390109458
UTC large
Height (km)
Speed (km/s)
/
Latitude / Longitude
Inclination (degrees)
Orbital Period (minutes)
Azimuth
Elevation
Range (km)
Doppler Factor

Next 0 passes for location: London (51.5072 / 0.1276)

Sorry there are no passes over London.